Time,TemperatureF,DewpointF,PressureIn,WindDirection,WindDirectionDegrees,WindSpeedMPH,WindSpeedGustMPH,Humidity,HourlyPrecipIn,Conditions,Clouds,dailyrainin,SoftwareType,DateUTC
2013-07-13 00:03:00,68.7,62.3,30.02,WNW,292,0.0,0.0,80,0.00,,,0.00,WUHU21623XXSP,2013-07-13 04:03:00,
2013-07-13 00:08:00,68.5,62.3,30.01,WNW,292,0.0,0.0,80,0.00,,,0.00,WUHU21623XXSP,2013-07-13 04:08:00,
2013-07-13 00:13:00,68.5,62.2,30.01,WNW,292,0.0,0.0,80,0.00,,,0.00,WUHU21623XXSP,2013-07-13 04:13:00,
2013-07-13 00:18:00,68.4,62.5,30.01,WNW,292,0.0,0.0,81,0.00,,,0.00,WUHU21623XXSP,2013-07-13 04:18:00,
2013-07-13 00:23:00,68.4,62.3,30.02,WNW,292,0.0,0.0,81,0.00,,,0.00,WUHU21623XXSP,2013-07-13 04:23:00,
2013-07-13 00:28:00,68.2,62.2,30.02,WNW,292,0.0,0.0,81,0.00,,,0.00,WUHU21623XXSP,2013-07-13 04:28:00,
2013-07-13 00:33:00,68.2,62.2,30.02,WNW,292,0.0,0.0,81,0.00,,,0.00,WUHU21623XXSP,2013-07-13 04:33:00,
2013-07-13 00:38:00,68.0,62.0,30.02,WNW,292,0.0,0.0,81,0.00,,,0.00,WUHU21623XXSP,2013-07-13 04:38:00,
2013-07-13 00:43:00,67.8,61.8,30.02,WNW,292,0.0,0.0,81,0.00,,,0.00,WUHU21623XXSP,2013-07-13 04:43:00,
2013-07-13 00:48:00,67.8,61.8,30.02,WNW,292,0.0,0.0,81,0.00,,,0.00,WUHU21623XXSP,2013-07-13 04:48:00,
2013-07-13 00:53:00,67.8,61.8,30.02,WNW,292,0.0,0.0,81,0.00,,,0.00,WUHU21623XXSP,2013-07-13 04:53:00,
2013-07-13 00:58:00,67.6,62.0,30.03,WNW,292,0.0,0.0,82,0.00,,,0.00,WUHU21623XXSP,2013-07-13 04:58:00,
2013-07-13 01:04:00,67.6,62.0,30.03,WNW,292,0.0,0.0,82,0.00,,,0.00,WUHU21623XXSP,2013-07-13 05:04:00,
2013-07-13 01:09:00,67.6,62.0,30.03,WNW,292,0.0,0.0,82,0.00,,,0.00,WUHU21623XXSP,2013-07-13 05:09:00,
2013-07-13 01:14:00,67.6,62.0,30.02,WNW,292,0.0,0.0,82,0.00,,,0.00,WUHU21623XXSP,2013-07-13 05:14:00,
2013-07-13 01:19:00,67.3,62.0,30.03,WNW,292,0.0,0.0,83,0.00,,,0.00,WUHU21623XXSP,2013-07-13 05:19:00,
2013-07-13 01:24:00,67.3,62.0,30.02,WNW,292,0.0,0.0,83,0.00,,,0.00,WUHU21623XXSP,2013-07-13 05:24:00,
2013-07-13 01:29:00,67.3,62.0,30.02,WNW,292,0.0,0.0,83,0.00,,,0.00,WUHU21623XXSP,2013-07-13 05:29:00,
2013-07-13 01:34:00,67.1,61.8,30.03,WNW,292,0.0,0.0,83,0.00,,,0.00,WUHU21623XXSP,2013-07-13 05:34:00,
2013-07-13 01:39:00,67.1,62.0,30.03,WNW,292,0.0,0.0,83,0.00,,,0.00,WUHU21623XXSP,2013-07-13 05:39:00,
2013-07-13 01:44:00,67.3,62.3,30.03,WNW,292,0.0,0.0,84,0.00,,,0.00,WUHU21623XXSP,2013-07-13 05:44:00,
2013-07-13 01:49:00,67.3,62.3,30.03,WNW,292,0.0,0.0,84,0.00,,,0.00,WUHU21623XXSP,2013-07-13 05:49:00,
2013-07-13 01:54:00,67.3,62.3,30.03,WNW,292,0.0,0.0,84,0.00,,,0.00,WUHU21623XXSP,2013-07-13 05:54:00,
2013-07-13 01:59:00,67.6,62.6,30.04,WNW,292,0.0,0.0,84,0.00,,,0.00,WUHU21623XXSP,2013-07-13 05:59:00,
2013-07-13 02:04:00,67.6,62.6,30.04,WNW,292,0.0,0.0,84,0.00,,,0.00,WUHU21623XXSP,2013-07-13 06:04:00,
2013-07-13 02:09:00,67.6,62.6,30.03,WNW,292,0.0,0.0,84,0.00,,,0.00,WUHU21623XXSP,2013-07-13 06:09:00,
2013-07-13 02:14:00,67.6,62.6,30.03,WNW,292,0.0,0.0,84,0.00,,,0.00,WUHU21623XXSP,2013-07-13 06:14:00,
2013-07-13 02:19:00,67.6,62.6,30.03,WNW,292,0.0,0.0,84,0.00,,,0.00,WUHU21623XXSP,2013-07-13 06:19:00,
2013-07-13 02:24:00,67.6,62.6,30.03,WNW,292,0.0,0.0,84,0.00,,,0.00,WUHU21623XXSP,2013-07-13 06:24:00,
2013-07-13 02:29:00,67.6,62.6,30.03,WNW,292,0.0,0.0,84,0.00,,,0.00,WUHU21623XXSP,2013-07-13 06:29:00,
2013-07-13 02:34:00,67.6,62.6,30.03,WNW,292,0.0,0.0,84,0.00,,,0.00,WUHU21623XXSP,2013-07-13 06:34:00,
2013-07-13 02:39:00,67.6,62.6,30.03,WNW,292,0.0,0.0,84,0.00,,,0.00,WUHU21623XXSP,2013-07-13 06:39:00,
2013-07-13 02:44:00,67.6,62.6,30.03,WNW,292,0.0,0.0,84,0.00,,,0.00,WUHU21623XXSP,2013-07-13 06:44:00,
2013-07-13 02:49:00,67.6,62.6,30.02,WNW,292,0.0,0.0,84,0.00,,,0.00,WUHU21623XXSP,2013-07-13 06:49:00,
2013-07-13 02:54:00,67.6,62.6,30.02,WNW,292,0.0,0.0,84,0.00,,,0.00,WUHU21623XXSP,2013-07-13 06:54:00,
2013-07-13 02:59:00,67.6,62.6,30.02,WNW,292,0.0,0.0,84,0.00,,,0.00,WUHU21623XXSP,2013-07-13 06:59:00,
2013-07-13 03:04:00,67.3,62.3,30.02,WNW,292,0.0,0.0,84,0.00,,,0.00,WUHU21623XXSP,2013-07-13 07:04:00,
2013-07-13 03:09:00,67.3,62.3,30.02,WNW,292,0.0,0.0,84,0.00,,,0.00,WUHU21623XXSP,2013-07-13 07:09:00,
2013-07-13 03:14:00,67.3,62.3,30.02,WNW,292,0.0,0.0,84,0.00,,,0.00,WUHU21623XXSP,2013-07-13 07:14:00,
2013-07-13 03:19:00,67.1,62.3,30.02,WNW,292,0.0,0.0,85,0.00,,,0.00,WUHU21623XXSP,2013-07-13 07:19:00,
2013-07-13 03:24:00,67.1,62.1,30.02,WNW,292,0.0,0.0,84,0.00,,,0.00,WUHU21623XXSP,2013-07-13 07:24:00,
2013-07-13 03:29:00,66.9,61.9,30.02,WNW,292,0.0,0.0,84,0.00,,,0.00,WUHU21623XXSP,2013-07-13 07:29:00,
2013-07-13 03:34:00,66.7,61.7,30.02,WNW,292,0.0,0.0,84,0.00,,,0.00,WUHU21623XXSP,2013-07-13 07:34:00,
2013-07-13 03:39:00,66.7,61.7,30.02,WNW,292,0.0,0.0,84,0.00,,,0.00,WUHU21623XXSP,2013-07-13 07:39:00,
2013-07-13 03:44:00,66.7,61.7,30.02,WNW,292,0.0,0.0,84,0.00,,,0.00,WUHU21623XXSP,2013-07-13 07:44:00,
2013-07-13 03:49:00,66.7,62.1,30.02,WNW,292,0.0,0.0,85,0.00,,,0.00,WUHU21623XXSP,2013-07-13 07:49:00,
2013-07-13 03:54:00,66.9,62.1,30.01,WNW,292,0.0,0.0,85,0.00,,,0.00,WUHU21623XXSP,2013-07-13 07:54:00,
2013-07-13 03:59:00,66.9,62.2,30.02,WNW,292,0.0,0.0,85,0.00,,,0.00,WUHU21623XXSP,2013-07-13 07:59:00,
2013-07-13 04:04:00,66.9,62.2,30.02,WNW,292,0.0,0.0,85,0.00,,,0.00,WUHU21623XXSP,2013-07-13 08:04:00,
2013-07-13 04:09:00,67.1,62.4,30.02,WNW,292,0.0,0.0,85,0.00,,,0.00,WUHU21623XXSP,2013-07-13 08:09:00,
2013-07-13 04:14:00,67.1,62.4,30.02,WNW,292,0.0,0.0,85,0.00,,,0.00,WUHU21623XXSP,2013-07-13 08:14:00,
2013-07-13 04:19:00,67.1,62.4,30.02,WNW,292,0.0,0.0,85,0.00,,,0.00,WUHU21623XXSP,2013-07-13 08:19:00,
2013-07-13 04:25:00,67.1,62.4,30.02,WNW,292,0.0,0.0,85,0.00,,,0.00,WUHU21623XXSP,2013-07-13 08:25:00,
2013-07-13 04:30:00,67.3,62.6,30.02,WNW,292,0.0,0.0,85,0.00,,,0.00,WUHU21623XXSP,2013-07-13 08:30:00,
2013-07-13 04:35:00,67.3,62.6,30.02,WNW,292,0.0,0.0,85,0.00,,,0.00,WUHU21623XXSP,2013-07-13 08:35:00,
2013-07-13 04:40:00,67.3,62.6,30.02,WNW,292,0.0,0.0,85,0.00,,,0.00,WUHU21623XXSP,2013-07-13 08:40:00,
2013-07-13 04:45:00,67.3,62.6,30.02,NW,315,0.0,0.0,85,0.00,,,0.00,WUHU21623XXSP,2013-07-13 08:45:00,
2013-07-13 04:50:00,67.3,62.6,30.02,NW,315,0.0,0.0,85,0.00,,,0.00,WUHU21623XXSP,2013-07-13 08:50:00,
2013-07-13 04:55:00,67.3,62.6,30.02,NW,315,0.0,0.0,85,0.00,,,0.00,WUHU21623XXSP,2013-07-13 08:55:00,
2013-07-13 05:00:00,67.6,63.0,30.02,NW,315,0.0,0.0,85,0.00,,,0.00,WUHU21623XXSP,2013-07-13 09:00:00,
2013-07-13 05:05:00,67.6,63.0,30.02,NW,315,0.0,0.0,85,0.00,,,0.00,WUHU21623XXSP,2013-07-13 09:05:00,
2013-07-13 05:10:00,67.6,63.0,30.02,NW,315,0.0,0.0,85,0.00,,,0.00,WUHU21623XXSP,2013-07-13 09:10:00,
2013-07-13 05:15:00,67.6,63.0,30.02,NW,315,0.0,0.0,85,0.00,,,0.00,WUHU21623XXSP,2013-07-13 09:15:00,
2013-07-13 05:20:00,67.6,63.0,30.02,NW,315,0.0,0.0,85,0.00,,,0.00,WUHU21623XXSP,2013-07-13 09:20:00,
2013-07-13 05:25:00,67.6,63.0,30.01,NW,315,0.0,0.0,85,0.00,,,0.00,WUHU21623XXSP,2013-07-13 09:25:00,
2013-07-13 05:30:00,67.8,63.1,30.01,NW,315,0.0,0.0,85,0.00,,,0.00,WUHU21623XXSP,2013-07-13 09:30:00,
2013-07-13 05:35:00,67.8,63.1,30.01,NW,315,0.0,0.0,85,0.00,,,0.00,WUHU21623XXSP,2013-07-13 09:35:00,
2013-07-13 05:40:00,67.6,63.0,30.01,NW,315,0.0,0.0,85,0.00,,,0.00,WUHU21623XXSP,2013-07-13 09:40:00,
2013-07-13 05:45:00,67.8,63.1,30.02,NW,315,0.0,0.0,85,0.00,,,0.00,WUHU21623XXSP,2013-07-13 09:45:00,
2013-07-13 05:50:00,67.8,63.1,30.02,NW,315,0.0,0.0,85,0.00,,,0.00,WUHU21623XXSP,2013-07-13 09:50:00,
2013-07-13 05:55:00,67.8,63.1,30.02,NW,315,0.0,0.0,85,0.00,,,0.00,WUHU21623XXSP,2013-07-13 09:55:00,
2013-07-13 06:00:00,67.8,63.1,30.02,NW,315,0.0,0.0,85,0.00,,,0.00,WUHU21623XXSP,2013-07-13 10:00:00,
2013-07-13 06:05:00,67.8,63.1,30.02,NW,315,0.0,0.0,85,0.00,,,0.00,WUHU21623XXSP,2013-07-13 10:05:00,
2013-07-13 06:10:00,68.0,63.3,30.02,North,0,0.0,0.0,85,0.00,,,0.00,WUHU21623XXSP,2013-07-13 10:10:00,
2013-07-13 06:15:00,68.2,63.5,30.02,North,0,0.0,0.0,85,0.00,,,0.00,WUHU21623XXSP,2013-07-13 10:15:00,
2013-07-13 06:20:00,68.2,63.5,30.03,North,0,0.0,0.0,85,0.00,,,0.00,WUHU21623XXSP,2013-07-13 10:20:00,
2013-07-13 06:25:00,68.2,63.5,30.03,North,0,0.0,0.0,85,0.00,,,0.00,WUHU21623XXSP,2013-07-13 10:25:00,
2013-07-13 06:30:00,68.2,63.5,30.03,North,0,0.0,0.0,85,0.00,,,0.00,WUHU21623XXSP,2013-07-13 10:30:00,
2013-07-13 06:35:00,68.2,63.5,30.04,North,0,0.0,0.0,85,0.00,,,0.00,WUHU21623XXSP,2013-07-13 10:35:00,
2013-07-13 06:40:00,68.2,63.5,30.04,North,0,0.0,0.0,85,0.00,,,0.00,WUHU21623XXSP,2013-07-13 10:40:00,
2013-07-13 06:45:00,68.2,63.5,30.04,North,0,0.0,0.0,85,0.00,,,0.00,WUHU21623XXSP,2013-07-13 10:45:00,
2013-07-13 06:50:00,68.2,63.5,30.05,North,0,0.0,0.0,85,0.00,,,0.00,WUHU21623XXSP,2013-07-13 10:50:00,
2013-07-13 06:55:00,68.0,63.3,30.05,North,0,0.0,0.0,85,0.00,,,0.00,WUHU21623XXSP,2013-07-13 10:55:00,
2013-07-13 07:00:00,68.2,63.5,30.05,North,0,0.0,0.0,85,0.00,,,0.00,WUHU21623XXSP,2013-07-13 11:00:00,
2013-07-13 07:05:00,68.2,63.5,30.05,North,0,0.0,0.0,85,0.00,,,0.00,WUHU21623XXSP,2013-07-13 11:05:00,
2013-07-13 07:10:00,68.2,63.5,30.06,North,0,0.0,0.0,85,0.00,,,0.00,WUHU21623XXSP,2013-07-13 11:10:00,
2013-07-13 07:15:00,68.2,63.5,30.05,North,0,0.0,0.0,85,0.00,,,0.00,WUHU21623XXSP,2013-07-13 11:15:00,
2013-07-13 07:20:00,68.2,63.5,30.06,North,0,0.0,0.0,85,0.00,,,0.00,WUHU21623XXSP,2013-07-13 11:20:00,
2013-07-13 07:25:00,68.4,63.7,30.05,North,0,0.0,0.0,85,0.00,,,0.00,WUHU21623XXSP,2013-07-13 11:25:00,
2013-07-13 07:30:00,68.4,63.7,30.05,North,0,0.0,0.0,85,0.00,,,0.00,WUHU21623XXSP,2013-07-13 11:30:00,
2013-07-13 07:35:00,68.4,63.7,30.06,North,0,0.0,0.0,85,0.00,,,0.00,WUHU21623XXSP,2013-07-13 11:35:00,
2013-07-13 07:41:00,68.2,63.5,30.06,North,0,0.0,0.0,85,0.00,,,0.00,WUHU21623XXSP,2013-07-13 11:41:00,
2013-07-13 07:46:00,68.2,63.5,30.06,North,0,0.0,0.0,85,0.00,,,0.00,WUHU21623XXSP,2013-07-13 11:46:00,
2013-07-13 07:51:00,68.2,63.5,30.06,North,0,0.0,0.0,85,0.00,,,0.00,WUHU21623XXSP,2013-07-13 11:51:00,
2013-07-13 07:56:00,68.4,63.7,30.06,North,0,0.0,0.0,85,0.00,,,0.00,WUHU21623XXSP,2013-07-13 11:56:00,
2013-07-13 08:01:00,68.4,63.7,30.06,North,0,0.0,0.0,85,0.00,,,0.00,WUHU21623XXSP,2013-07-13 12:01:00,
2013-07-13 08:06:00,68.7,64.0,30.06,North,0,0.0,0.0,85,0.00,,,0.00,WUHU21623XXSP,2013-07-13 12:06:00,
2013-07-13 08:11:00,68.7,64.3,30.06,North,0,0.0,0.0,86,0.00,,,0.00,WUHU21623XXSP,2013-07-13 12:11:00,
2013-07-13 08:16:00,69.1,64.7,30.07,North,0,0.0,0.0,86,0.00,,,0.00,WUHU21623XXSP,2013-07-13 12:16:00,
2013-07-13 08:21:00,69.3,64.7,30.07,North,0,0.0,0.0,85,0.00,,,0.00,WUHU21623XXSP,2013-07-13 12:21:00,
2013-07-13 08:26:00,69.4,64.7,30.06,North,0,0.0,0.0,85,0.00,,,0.00,WUHU21623XXSP,2013-07-13 12:26:00,
2013-07-13 08:31:00,69.6,64.8,30.07,North,0,0.0,0.0,85,0.00,,,0.00,WUHU21623XXSP,2013-07-13 12:31:00,
2013-07-13 08:36:00,70.2,65.0,30.07,North,0,0.0,0.0,84,0.00,,,0.00,WUHU21623XXSP,2013-07-13 12:36:00,
2013-07-13 08:41:00,70.5,65.4,30.07,North,0,0.0,0.0,84,0.00,,,0.00,WUHU21623XXSP,2013-07-13 12:41:00,
2013-07-13 08:46:00,70.7,65.6,30.07,North,0,0.0,0.0,84,0.00,,,0.00,WUHU21623XXSP,2013-07-13 12:46:00,
2013-07-13 08:51:00,71.2,65.8,30.07,NNE,22,0.0,0.0,83,0.00,,,0.00,WUHU21623XXSP,2013-07-13 12:51:00,
2013-07-13 08:56:00,71.2,65.8,30.07,NE,45,0.0,0.0,83,0.00,,,0.00,WUHU21623XXSP,2013-07-13 12:56:00,
2013-07-13 09:01:00,71.6,65.8,30.07,NE,45,0.0,0.0,82,0.00,,,0.00,WUHU21623XXSP,2013-07-13 13:01:00,
2013-07-13 09:06:00,72.1,66.3,30.07,NE,45,0.0,0.0,82,0.00,,,0.00,WUHU21623XXSP,2013-07-13 13:06:00,
2013-07-13 09:11:00,72.5,66.7,30.07,NE,45,0.0,0.0,82,0.00,,,0.00,WUHU21623XXSP,2013-07-13 13:11:00,
2013-07-13 09:16:00,72.7,66.9,30.07,NE,45,0.0,0.0,82,0.00,,,0.00,WUHU21623XXSP,2013-07-13 13:16:00,
2013-07-13 09:21:00,73.4,66.9,30.07,East,90,0.0,0.0,80,0.00,,,0.00,WUHU21623XXSP,2013-07-13 13:21:00,
2013-07-13 09:26:00,73.9,67.5,30.08,ENE,67,0.0,0.0,80,0.00,,,0.00,WUHU21623XXSP,2013-07-13 13:26:00,
2013-07-13 09:31:00,74.3,67.4,30.08,ESE,112,0.0,0.0,79,0.00,,,0.00,WUHU21623XXSP,2013-07-13 13:31:00,
2013-07-13 09:36:00,74.5,66.8,30.08,ESE,112,0.2,0.2,77,0.00,,,0.00,WUHU21623XXSP,2013-07-13 13:36:00,
2013-07-13 09:41:00,74.5,66.8,30.08,ESE,112,0.0,0.2,76,0.00,,,0.00,WUHU21623XXSP,2013-07-13 13:41:00,
2013-07-13 09:46:00,74.7,66.1,30.08,ESE,112,0.0,0.0,75,0.00,,,0.00,WUHU21623XXSP,2013-07-13 13:46:00,
2013-07-13 09:51:00,74.8,66.4,30.08,ESE,112,1.3,1.3,75,0.00,,,0.00,WUHU21623XXSP,2013-07-13 13:51:00,
2013-07-13 09:56:00,75.0,66.6,30.08,ESE,112,0.0,1.3,75,0.00,,,0.00,WUHU21623XXSP,2013-07-13 13:56:00,
2013-07-13 10:01:00,75.6,66.5,30.08,ESE,112,0.0,0.0,74,0.00,,,0.00,WUHU21623XXSP,2013-07-13 14:01:00,
2013-07-13 10:06:00,75.7,66.5,30.08,ESE,112,0.0,0.0,73,0.00,,,0.00,WUHU21623XXSP,2013-07-13 14:06:00,
2013-07-13 10:11:00,75.7,66.5,30.08,ESE,112,0.0,0.0,73,0.00,,,0.00,WUHU21623XXSP,2013-07-13 14:11:00,
2013-07-13 10:16:00,75.6,66.3,30.08,ESE,112,0.0,0.0,73,0.00,,,0.00,WUHU21623XXSP,2013-07-13 14:16:00,
2013-07-13 10:21:00,75.7,66.1,30.08,ESE,112,0.0,0.0,72,0.00,,,0.00,WUHU21623XXSP,2013-07-13 14:21:00,
2013-07-13 10:26:00,75.6,65.9,30.08,ESE,112,0.0,0.0,72,0.00,,,0.00,WUHU21623XXSP,2013-07-13 14:26:00,
2013-07-13 10:31:00,75.9,66.3,30.08,ENE,67,2.0,2.5,72,0.00,,,0.00,WUHU21623XXSP,2013-07-13 14:31:00,
2013-07-13 10:36:00,76.3,66.4,30.08,ENE,67,0.0,2.5,72,0.00,,,0.00,WUHU21623XXSP,2013-07-13 14:36:00,
2013-07-13 10:41:00,76.6,66.6,30.08,ESE,112,0.0,0.0,71,0.00,,,0.00,WUHU21623XXSP,2013-07-13 14:41:00,
2013-07-13 10:46:00,77.2,67.1,30.08,ESE,112,0.0,0.0,71,0.00,,,0.00,WUHU21623XXSP,2013-07-13 14:46:00,
2013-07-13 10:52:00,77.7,67.6,30.08,ESE,112,0.0,0.0,71,0.00,,,0.00,WUHU21623XXSP,2013-07-13 14:52:00,
2013-07-13 10:57:00,78.6,68.4,30.08,SSE,157,2.2,2.2,71,0.00,,,0.00,WUHU21623XXSP,2013-07-13 14:57:00,
2013-07-13 11:02:00,79.5,68.5,30.09,SSE,157,0.0,2.2,69,0.00,,,0.00,WUHU21623XXSP,2013-07-13 15:02:00,
2013-07-13 11:07:00,80.2,68.4,30.09,ENE,67,1.1,1.1,67,0.00,,,0.00,WUHU21623XXSP,2013-07-13 15:07:00,
2013-07-13 11:12:00,80.8,68.8,30.09,ESE,112,0.0,2.2,67,0.00,,,0.00,WUHU21623XXSP,2013-07-13 15:12:00,
2013-07-13 11:17:00,80.8,68.7,30.09,ENE,67,4.0,4.0,65,0.00,,,0.00,WUHU21623XXSP,2013-07-13 15:17:00,
2013-07-13 11:22:00,80.2,67.4,30.09,ENE,67,0.0,4.0,65,0.00,,,0.00,WUHU21623XXSP,2013-07-13 15:22:00,
2013-07-13 11:27:00,79.7,67.5,30.09,ENE,67,0.0,0.0,66,0.00,,,0.00,WUHU21623XXSP,2013-07-13 15:27:00,
2013-07-13 11:32:00,79.2,66.8,30.09,ENE,67,0.0,0.0,66,0.00,,,0.00,WUHU21623XXSP,2013-07-13 15:32:00,
2013-07-13 11:37:00,79.0,67.0,30.09,East,90,0.0,0.0,67,0.00,,,0.00,WUHU21623XXSP,2013-07-13 15:37:00,
2013-07-13 11:42:00,78.6,66.7,30.10,East,90,0.0,0.0,67,0.00,,,0.00,WUHU21623XXSP,2013-07-13 15:42:00,
2013-07-13 11:47:00,78.1,66.7,30.10,SE,135,0.0,0.0,68,0.00,,,0.00,WUHU21623XXSP,2013-07-13 15:47:00,
2013-07-13 11:52:00,77.7,66.3,30.10,SE,135,0.0,0.0,68,0.00,,,0.00,WUHU21623XXSP,2013-07-13 15:52:00,
2013-07-13 11:57:00,77.5,66.6,30.10,SE,135,0.0,0.0,69,0.00,,,0.00,WUHU21623XXSP,2013-07-13 15:57:00,
2013-07-13 12:02:00,77.5,66.1,30.10,ENE,67,0.0,0.0,68,0.00,,,0.00,WUHU21623XXSP,2013-07-13 16:02:00,
2013-07-13 12:07:00,77.5,66.6,30.10,SE,135,0.0,0.0,69,0.00,,,0.00,WUHU21623XXSP,2013-07-13 16:07:00,
2013-07-13 12:12:00,77.7,66.8,30.10,East,90,0.0,0.9,69,0.00,,,0.00,WUHU21623XXSP,2013-07-13 16:12:00,
2013-07-13 12:17:00,78.1,67.1,30.10,East,90,0.0,0.9,69,0.00,,,0.00,WUHU21623XXSP,2013-07-13 16:17:00,
2013-07-13 12:22:00,78.6,67.6,30.10,ESE,112,0.0,0.0,69,0.00,,,0.00,WUHU21623XXSP,2013-07-13 16:22:00,
2013-07-13 12:27:00,80.8,69.0,30.11,SE,135,0.0,0.0,68,0.00,,,0.00,WUHU21623XXSP,2013-07-13 16:27:00,
2013-07-13 12:32:00,82.4,70.1,30.11,ENE,67,2.9,2.9,68,0.00,,,0.00,WUHU21623XXSP,2013-07-13 16:32:00,
2013-07-13 12:37:00,83.8,71.2,30.11,SSE,157,0.0,2.9,66,0.00,,,0.00,WUHU21623XXSP,2013-07-13 16:37:00,
2013-07-13 12:42:00,84.7,70.7,30.11,ENE,67,0.0,0.0,63,0.00,,,0.00,WUHU21623XXSP,2013-07-13 16:42:00,
2013-07-13 12:47:00,85.3,70.9,30.11,ESE,112,2.5,2.5,62,0.00,,,0.00,WUHU21623XXSP,2013-07-13 16:47:00,
2013-07-13 12:52:00,86.0,70.5,30.10,ENE,67,0.0,3.4,60,0.00,,,0.00,WUHU21623XXSP,2013-07-13 16:52:00,
2013-07-13 12:57:00,86.5,71.1,30.10,ESE,112,1.6,3.4,60,0.00,,,0.00,WUHU21623XXSP,2013-07-13 16:57:00,
2013-07-13 13:02:00,86.9,70.9,30.10,ENE,67,0.0,2.2,59,0.00,,,0.00,WUHU21623XXSP,2013-07-13 17:02:00,
2013-07-13 13:07:00,87.1,71.1,30.10,SE,135,1.3,2.2,59,0.00,,,0.00,WUHU21623XXSP,2013-07-13 17:07:00,
2013-07-13 13:12:00,87.6,70.9,30.10,ESE,112,0.0,1.3,58,0.00,,,0.00,WUHU21623XXSP,2013-07-13 17:12:00,
2013-07-13 13:17:00,87.6,70.5,30.10,ESE,112,0.0,0.7,57,0.00,,,0.00,WUHU21623XXSP,2013-07-13 17:17:00,
2013-07-13 13:22:00,88.2,71.0,30.10,East,90,0.0,0.0,57,0.00,,,0.00,WUHU21623XXSP,2013-07-13 17:22:00,
2013-07-13 13:27:00,88.7,71.0,30.10,East,90,0.0,0.0,56,0.00,,,0.00,WUHU21623XXSP,2013-07-13 17:27:00,
2013-07-13 13:32:00,88.9,71.1,30.10,ESE,112,0.0,0.0,56,0.00,,,0.00,WUHU21623XXSP,2013-07-13 17:32:00,
2013-07-13 13:37:00,89.4,71.5,30.10,ESE,112,0.0,0.0,56,0.00,,,0.00,WUHU21623XXSP,2013-07-13 17:37:00,
2013-07-13 13:42:00,89.8,71.9,30.10,SE,135,0.0,0.0,56,0.00,,,0.00,WUHU21623XXSP,2013-07-13 17:42:00,
2013-07-13 13:47:00,90.3,72.4,30.10,SSE,157,0.0,0.0,56,0.00,,,0.00,WUHU21623XXSP,2013-07-13 17:47:00,
2013-07-13 13:52:00,90.3,71.9,30.10,East,90,0.0,0.0,55,0.00,,,0.00,WUHU21623XXSP,2013-07-13 17:52:00,
2013-07-13 13:57:00,90.3,71.3,30.10,SSE,157,0.0,0.0,54,0.00,,,0.00,WUHU21623XXSP,2013-07-13 17:57:00,
2013-07-13 14:03:00,90.1,71.2,30.10,ENE,67,0.0,0.0,54,0.00,,,0.00,WUHU21623XXSP,2013-07-13 18:03:00,
2013-07-13 14:08:00,89.2,70.4,30.10,ENE,67,0.0,0.0,54,0.00,,,0.00,WUHU21623XXSP,2013-07-13 18:08:00,
2013-07-13 14:13:00,88.2,69.4,30.10,ESE,112,0.0,0.0,54,0.00,,,0.00,WUHU21623XXSP,2013-07-13 18:13:00,
2013-07-13 14:18:00,87.1,68.9,30.10,ESE,112,0.0,0.0,55,0.00,,,0.00,WUHU21623XXSP,2013-07-13 18:18:00,
2013-07-13 14:23:00,86.2,68.6,30.10,SSE,157,0.0,0.0,56,0.00,,,0.00,WUHU21623XXSP,2013-07-13 18:23:00,
2013-07-13 14:28:00,86.2,69.1,30.10,SSE,157,0.0,0.0,57,0.00,,,0.00,WUHU21623XXSP,2013-07-13 18:28:00,
2013-07-13 14:33:00,86.7,69.6,30.09,SSE,157,0.0,0.0,57,0.00,,,0.00,WUHU21623XXSP,2013-07-13 18:33:00,
2013-07-13 14:38:00,87.4,69.6,30.09,SSE,157,0.0,0.0,57,0.00,,,0.00,WUHU21623XXSP,2013-07-13 18:38:00,
2013-07-13 14:43:00,87.6,69.4,30.09,NE,45,0.0,0.0,55,0.00,,,0.00,WUHU21623XXSP,2013-07-13 18:43:00,
2013-07-13 14:48:00,87.6,70.0,30.09,NE,45,0.0,0.0,56,0.00,,,0.00,WUHU21623XXSP,2013-07-13 18:48:00,
2013-07-13 14:53:00,87.6,70.0,30.09,ENE,67,0.0,0.0,56,0.00,,,0.00,WUHU21623XXSP,2013-07-13 18:53:00,
2013-07-13 14:58:00,87.6,70.0,30.09,SSE,157,0.0,0.0,56,0.00,,,0.00,WUHU21623XXSP,2013-07-13 18:58:00,
2013-07-13 15:03:00,87.6,70.0,30.09,SSE,157,0.0,0.0,56,0.00,,,0.00,WUHU21623XXSP,2013-07-13 19:03:00,
2013-07-13 15:08:00,87.4,69.8,30.08,SSE,157,0.0,0.0,56,0.00,,,0.00,WUHU21623XXSP,2013-07-13 19:08:00,
2013-07-13 15:13:00,87.1,70.0,30.09,SSE,157,0.0,0.0,57,0.00,,,0.00,WUHU21623XXSP,2013-07-13 19:13:00,
2013-07-13 15:18:00,87.1,70.0,30.08,SSE,157,0.0,0.0,57,0.00,,,0.00,WUHU21623XXSP,2013-07-13 19:18:00,
2013-07-13 15:23:00,86.5,69.5,30.08,SSE,157,0.0,0.0,57,0.00,,,0.00,WUHU21623XXSP,2013-07-13 19:23:00,
2013-07-13 15:28:00,86.2,69.1,30.08,SSE,157,0.0,0.0,57,0.00,,,0.00,WUHU21623XXSP,2013-07-13 19:28:00,
2013-07-13 15:33:00,85.5,68.5,30.08,SSE,157,0.0,0.0,57,0.00,,,0.00,WUHU21623XXSP,2013-07-13 19:33:00,
2013-07-13 15:38:00,84.7,68.3,30.09,East,90,0.0,0.0,58,0.00,,,0.00,WUHU21623XXSP,2013-07-13 19:38:00,
2013-07-13 15:43:00,84.7,68.9,30.09,East,90,0.0,0.0,59,0.00,,,0.00,WUHU21623XXSP,2013-07-13 19:43:00,
2013-07-13 15:48:00,84.6,69.2,30.09,East,90,0.0,0.0,60,0.00,,,0.00,WUHU21623XXSP,2013-07-13 19:48:00,
2013-07-13 15:53:00,84.4,69.1,30.09,East,90,0.0,0.0,60,0.00,,,0.00,WUHU21623XXSP,2013-07-13 19:53:00,
2013-07-13 15:58:00,84.0,68.7,30.09,East,90,0.0,0.0,60,0.00,,,0.00,WUHU21623XXSP,2013-07-13 19:58:00,
2013-07-13 16:03:00,83.3,68.0,30.09,ESE,112,0.0,0.0,60,0.00,,,0.00,WUHU21623XXSP,2013-07-13 20:03:00,
2013-07-13 16:08:00,83.5,68.2,30.08,ESE,112,0.0,0.0,60,0.00,,,0.00,WUHU21623XXSP,2013-07-13 20:08:00,
2013-07-13 16:13:00,83.8,68.5,30.08,SE,135,0.0,0.0,60,0.00,,,0.00,WUHU21623XXSP,2013-07-13 20:13:00,
2013-07-13 16:18:00,83.3,67.5,30.08,ESE,112,0.0,0.0,59,0.00,,,0.00,WUHU21623XXSP,2013-07-13 20:18:00,
2013-07-13 16:23:00,83.1,67.8,30.08,ESE,112,0.0,0.0,60,0.00,,,0.00,WUHU21623XXSP,2013-07-13 20:23:00,
2013-07-13 16:28:00,82.9,67.6,30.08,ESE,112,0.0,0.0,60,0.00,,,0.00,WUHU21623XXSP,2013-07-13 20:28:00,
2013-07-13 16:33:00,82.6,67.3,30.08,East,90,0.0,0.0,60,0.00,,,0.00,WUHU21623XXSP,2013-07-13 20:33:00,
2013-07-13 16:38:00,82.2,66.9,30.08,East,90,0.0,0.0,60,0.00,,,0.00,WUHU21623XXSP,2013-07-13 20:38:00,
2013-07-13 16:43:00,82.4,67.6,30.08,ESE,112,0.0,0.0,61,0.00,,,0.00,WUHU21623XXSP,2013-07-13 20:43:00,
2013-07-13 16:48:00,82.2,67.4,30.08,West,270,0.0,0.0,61,0.00,,,0.00,WUHU21623XXSP,2013-07-13 20:48:00,
2013-07-13 16:53:00,82.2,67.4,30.08,NNW,337,0.0,0.0,61,0.00,,,0.00,WUHU21623XXSP,2013-07-13 20:53:00,
2013-07-13 16:58:00,82.0,67.2,30.08,NNW,337,0.0,0.0,61,0.00,,,0.00,WUHU21623XXSP,2013-07-13 20:58:00,
2013-07-13 17:03:00,82.0,68.1,30.07,NNW,337,0.0,0.0,63,0.00,,,0.00,WUHU21623XXSP,2013-07-13 21:03:00,
2013-07-13 17:08:00,82.2,67.8,30.07,ESE,112,0.0,0.0,62,0.00,,,0.00,WUHU21623XXSP,2013-07-13 21:08:00,
2013-07-13 17:13:00,82.0,67.7,30.07,ESE,112,0.0,0.0,62,0.00,,,0.00,WUHU21623XXSP,2013-07-13 21:13:00,
2013-07-13 17:18:00,82.0,67.7,30.08,ESE,112,0.0,0.0,62,0.00,,,0.00,WUHU21623XXSP,2013-07-13 21:18:00,
2013-07-13 17:24:00,82.4,68.0,30.08,ESE,112,0.0,0.0,62,0.00,,,0.00,WUHU21623XXSP,2013-07-13 21:24:00,
2013-07-13 17:29:00,82.6,67.7,30.08,ESE,112,0.0,0.0,61,0.00,,,0.00,WUHU21623XXSP,2013-07-13 21:29:00,
2013-07-13 17:34:00,82.2,67.4,30.08,ESE,112,0.0,0.0,61,0.00,,,0.00,WUHU21623XXSP,2013-07-13 21:34:00,
2013-07-13 17:39:00,82.0,67.2,30.08,ESE,112,0.0,0.0,61,0.00,,,0.00,WUHU21623XXSP,2013-07-13 21:39:00,
2013-07-13 17:44:00,81.7,67.4,30.08,ESE,112,0.0,0.0,62,0.00,,,0.00,WUHU21623XXSP,2013-07-13 21:44:00,
2013-07-13 17:49:00,81.5,67.2,30.07,ESE,112,0.0,0.0,62,0.00,,,0.00,WUHU21623XXSP,2013-07-13 21:49:00,
2013-07-13 17:54:00,81.3,67.0,30.07,ESE,112,0.0,0.0,62,0.00,,,0.00,WUHU21623XXSP,2013-07-13 21:54:00,
2013-07-13 17:59:00,81.0,66.7,30.07,ESE,112,0.0,0.0,62,0.00,,,0.00,WUHU21623XXSP,2013-07-13 21:59:00,
2013-07-13 18:04:00,80.8,67.0,30.07,ESE,112,0.0,0.0,63,0.00,,,0.00,WUHU21623XXSP,2013-07-13 22:04:00,
2013-07-13 18:09:00,81.0,67.6,30.07,ESE,112,0.0,0.0,64,0.00,,,0.00,WUHU21623XXSP,2013-07-13 22:09:00,
2013-07-13 18:14:00,80.8,67.4,30.08,ESE,112,0.0,0.0,64,0.00,,,0.00,WUHU21623XXSP,2013-07-13 22:14:00,
2013-07-13 18:19:00,80.6,67.3,30.08,ESE,112,0.0,0.0,64,0.00,,,0.00,WUHU21623XXSP,2013-07-13 22:19:00,
2013-07-13 18:24:00,80.4,67.1,30.08,ESE,112,0.0,0.0,64,0.00,,,0.00,WUHU21623XXSP,2013-07-13 22:24:00,
2013-07-13 18:29:00,79.7,67.0,30.08,ESE,112,0.0,0.0,65,0.00,,,0.00,WUHU21623XXSP,2013-07-13 22:29:00,
2013-07-13 18:34:00,79.5,66.7,30.08,ESE,112,0.0,0.0,65,0.00,,,0.00,WUHU21623XXSP,2013-07-13 22:34:00,
2013-07-13 18:39:00,79.2,66.5,30.08,ESE,112,0.0,0.0,65,0.00,,,0.00,WUHU21623XXSP,2013-07-13 22:39:00,
2013-07-13 18:44:00,78.6,66.3,30.09,ESE,112,0.0,0.0,66,0.00,,,0.00,WUHU21623XXSP,2013-07-13 22:44:00,
2013-07-13 18:49:00,78.6,66.3,30.08,ESE,112,0.0,0.0,66,0.00,,,0.00,WUHU21623XXSP,2013-07-13 22:49:00,
2013-07-13 18:54:00,78.3,66.1,30.08,ESE,112,0.0,0.0,66,0.00,,,0.00,WUHU21623XXSP,2013-07-13 22:54:00,
2013-07-13 18:59:00,77.9,65.6,30.08,ENE,67,0.0,0.0,66,0.00,,,0.00,WUHU21623XXSP,2013-07-13 22:59:00,
2013-07-13 19:04:00,77.7,65.4,30.08,ENE,67,0.0,0.0,66,0.00,,,0.00,WUHU21623XXSP,2013-07-13 23:04:00,
2013-07-13 19:09:00,77.5,65.7,30.09,SE,135,0.0,0.0,67,0.00,,,0.00,WUHU21623XXSP,2013-07-13 23:09:00,
2013-07-13 19:14:00,77.2,65.4,30.09,ENE,67,0.0,1.1,67,0.00,,,0.00,WUHU21623XXSP,2013-07-13 23:14:00,
2013-07-13 19:19:00,77.2,65.4,30.09,ENE,67,0.0,1.1,67,0.00,,,0.00,WUHU21623XXSP,2013-07-13 23:19:00,
2013-07-13 19:24:00,77.2,65.4,30.09,ENE,67,0.0,0.0,67,0.00,,,0.00,WUHU21623XXSP,2013-07-13 23:24:00,
2013-07-13 19:29:00,77.0,65.7,30.09,ENE,67,0.0,0.0,68,0.00,,,0.00,WUHU21623XXSP,2013-07-13 23:29:00,
2013-07-13 19:34:00,76.8,65.5,30.09,ENE,67,0.0,0.0,68,0.00,,,0.00,WUHU21623XXSP,2013-07-13 23:34:00,
2013-07-13 19:39:00,76.8,65.9,30.09,ENE,67,0.0,0.0,69,0.00,,,0.00,WUHU21623XXSP,2013-07-13 23:39:00,
2013-07-13 19:44:00,76.6,65.8,30.09,ENE,67,0.0,0.0,69,0.00,,,0.00,WUHU21623XXSP,2013-07-13 23:44:00,
2013-07-13 19:49:00,76.6,65.8,30.09,ENE,67,0.0,0.0,69,0.00,,,0.00,WUHU21623XXSP,2013-07-13 23:49:00,
2013-07-13 19:54:00,76.3,65.4,30.09,ENE,67,0.0,0.0,69,0.00,,,0.00,WUHU21623XXSP,2013-07-13 23:54:00,
2013-07-13 19:59:00,76.1,65.2,30.09,ENE,67,0.0,0.0,69,0.00,,,0.00,WUHU21623XXSP,2013-07-13 23:59:00,
2013-07-13 20:04:00,75.9,65.0,30.09,ENE,67,0.0,0.0,69,0.00,,,0.00,WUHU21623XXSP,2013-07-14 00:04:00,
2013-07-13 20:09:00,75.6,65.3,30.09,ENE,67,0.0,0.0,70,0.00,,,0.00,WUHU21623XXSP,2013-07-14 00:09:00,
2013-07-13 20:14:00,75.6,65.1,30.09,ENE,67,0.0,0.0,70,0.00,,,0.00,WUHU21623XXSP,2013-07-14 00:14:00,
2013-07-13 20:19:00,75.4,64.9,30.09,ENE,67,0.0,0.0,70,0.00,,,0.00,WUHU21623XXSP,2013-07-14 00:19:00,
2013-07-13 20:24:00,75.0,64.6,30.09,ENE,67,0.0,0.0,70,0.00,,,0.00,WUHU21623XXSP,2013-07-14 00:24:00,
2013-07-13 20:30:00,74.8,65.0,30.09,ENE,67,0.0,0.0,71,0.00,,,0.00,WUHU21623XXSP,2013-07-14 00:30:00,
2013-07-13 20:35:00,74.8,64.8,30.09,NE,45,0.0,0.0,71,0.00,,,0.00,WUHU21623XXSP,2013-07-14 00:35:00,
2013-07-13 20:40:00,74.5,64.8,30.10,NE,45,0.0,0.0,71,0.00,,,0.00,WUHU21623XXSP,2013-07-14 00:40:00,
2013-07-13 20:45:00,74.5,64.5,30.10,NE,45,0.0,0.0,71,0.00,,,0.00,WUHU21623XXSP,2013-07-14 00:45:00,
2013-07-13 20:50:00,74.3,64.3,30.10,NE,45,0.0,0.0,71,0.00,,,0.00,WUHU21623XXSP,2013-07-14 00:50:00,
2013-07-13 20:55:00,74.1,64.5,30.10,NE,45,0.0,0.0,72,0.00,,,0.00,WUHU21623XXSP,2013-07-14 00:55:00,
2013-07-13 21:00:00,73.9,64.9,30.10,NE,45,0.0,0.0,73,0.00,,,0.00,WUHU21623XXSP,2013-07-14 01:00:00,
2013-07-13 21:05:00,73.9,64.8,30.10,NE,45,0.0,0.0,73,0.00,,,0.00,WUHU21623XXSP,2013-07-14 01:05:00,
2013-07-13 21:10:00,73.6,64.4,30.10,NE,45,0.0,0.0,73,0.00,,,0.00,WUHU21623XXSP,2013-07-14 01:10:00,
2013-07-13 21:15:00,73.6,64.4,30.10,NE,45,0.0,0.0,73,0.00,,,0.00,WUHU21623XXSP,2013-07-14 01:15:00,
2013-07-13 21:20:00,73.4,64.3,30.10,NE,45,0.0,0.0,73,0.00,,,0.00,WUHU21623XXSP,2013-07-14 01:20:00,
2013-07-13 21:25:00,73.2,64.5,30.10,NE,45,0.0,0.0,74,0.00,,,0.00,WUHU21623XXSP,2013-07-14 01:25:00,
2013-07-13 21:30:00,73.2,64.5,30.10,NE,45,0.0,0.0,74,0.00,,,0.00,WUHU21623XXSP,2013-07-14 01:30:00,
2013-07-13 21:35:00,73.2,64.5,30.11,NE,45,0.0,0.0,74,0.00,,,0.00,WUHU21623XXSP,2013-07-14 01:35:00,
2013-07-13 21:40:00,73.0,64.3,30.11,NE,45,0.0,0.0,74,0.00,,,0.00,WUHU21623XXSP,2013-07-14 01:40:00,
2013-07-13 21:45:00,73.0,64.3,30.11,NE,45,0.0,0.0,74,0.00,,,0.00,WUHU21623XXSP,2013-07-14 01:45:00,
2013-07-13 21:50:00,73.0,64.3,30.11,NE,45,0.0,0.0,74,0.00,,,0.00,WUHU21623XXSP,2013-07-14 01:50:00,
2013-07-13 21:55:00,72.7,63.9,30.12,NE,45,0.0,0.0,74,0.00,,,0.00,WUHU21623XXSP,2013-07-14 01:55:00,
2013-07-13 22:00:00,72.7,63.9,30.12,NE,45,0.0,0.0,74,0.00,,,0.00,WUHU21623XXSP,2013-07-14 02:00:00,
2013-07-13 22:05:00,72.7,63.9,30.12,NE,45,0.0,0.0,74,0.00,,,0.00,WUHU21623XXSP,2013-07-14 02:05:00,
2013-07-13 22:10:00,72.5,63.8,30.12,NE,45,0.0,0.0,74,0.00,,,0.00,WUHU21623XXSP,2013-07-14 02:10:00,
2013-07-13 22:15:00,72.3,63.6,30.12,NE,45,0.0,0.0,74,0.00,,,0.00,WUHU21623XXSP,2013-07-14 02:15:00,
2013-07-13 22:20:00,72.3,64.0,30.12,NE,45,0.0,0.0,75,0.00,,,0.00,WUHU21623XXSP,2013-07-14 02:20:00,
2013-07-13 22:25:00,72.3,64.0,30.12,NE,45,0.0,0.0,75,0.00,,,0.00,WUHU21623XXSP,2013-07-14 02:25:00,
2013-07-13 22:30:00,72.1,64.1,30.13,NE,45,0.0,0.0,76,0.00,,,0.00,WUHU21623XXSP,2013-07-14 02:30:00,
2013-07-13 22:35:00,71.8,64.2,30.13,NE,45,0.0,0.0,77,0.00,,,0.00,WUHU21623XXSP,2013-07-14 02:35:00,
2013-07-13 22:40:00,71.4,63.8,30.12,NE,45,0.0,0.0,77,0.00,,,0.00,WUHU21623XXSP,2013-07-14 02:40:00,
2013-07-13 22:45:00,71.4,63.8,30.12,NE,45,0.0,0.0,77,0.00,,,0.00,WUHU21623XXSP,2013-07-14 02:45:00,
2013-07-13 22:50:00,71.2,63.2,30.12,NE,45,0.0,0.0,76,0.00,,,0.00,WUHU21623XXSP,2013-07-14 02:50:00,
2013-07-13 22:55:00,71.2,63.2,30.12,NE,45,0.0,0.0,76,0.00,,,0.00,WUHU21623XXSP,2013-07-14 02:55:00,
2013-07-13 23:00:00,71.2,63.2,30.13,NE,45,0.0,0.0,76,0.00,,,0.00,WUHU21623XXSP,2013-07-14 03:00:00,
2013-07-13 23:05:00,71.2,63.6,30.13,NE,45,0.0,0.0,77,0.00,,,0.00,WUHU21623XXSP,2013-07-14 03:05:00,
2013-07-13 23:10:00,71.2,63.6,30.13,NE,45,0.0,0.0,77,0.00,,,0.00,WUHU21623XXSP,2013-07-14 03:10:00,
2013-07-13 23:15:00,70.9,63.3,30.13,NE,45,0.0,0.0,77,0.00,,,0.00,WUHU21623XXSP,2013-07-14 03:15:00,
2013-07-13 23:20:00,70.9,63.3,30.13,NE,45,0.0,0.0,77,0.00,,,0.00,WUHU21623XXSP,2013-07-14 03:20:00,
2013-07-13 23:25:00,70.7,63.5,30.13,NE,45,0.0,0.0,78,0.00,,,0.00,WUHU21623XXSP,2013-07-14 03:25:00,
2013-07-13 23:31:00,70.5,63.3,30.12,NE,45,0.0,0.0,78,0.00,,,0.00,WUHU21623XXSP,2013-07-14 03:31:00,
2013-07-13 23:36:00,70.3,63.1,30.12,NE,45,0.0,0.0,78,0.00,,,0.00,WUHU21623XXSP,2013-07-14 03:36:00,
2013-07-13 23:41:00,70.3,63.5,30.12,NE,45,0.0,0.0,79,0.00,,,0.00,WUHU21623XXSP,2013-07-14 03:41:00,
2013-07-13 23:46:00,70.2,63.3,30.12,NE,45,0.0,0.0,79,0.00,,,0.00,WUHU21623XXSP,2013-07-14 03:46:00,
2013-07-13 23:51:00,70.0,63.1,30.12,NE,45,0.0,0.0,79,0.00,,,0.00,WUHU21623XXSP,2013-07-14 03:51:00,
2013-07-13 23:56:00,70.0,63.1,30.12,NE,45,0.0,0.0,79,0.00,,,0.00,WUHU21623XXSP,2013-07-14 03:56:00,